AMAZONAS 4A

Last updated on Sat Jul 05 2025 00:02:46 GMT+0000 (Coordinated Universal Time)

1 39616U 14011A 25185.12237532 -.00000239 00000+0 00000+0 0 9991 2 39616 0.0572 197.9178 0004683 294.2673 120.2099 1.00268322 41223
UTC large
Height (km)
Speed (km/s)
/
Latitude / Longitude
Inclination (degrees)
Orbital Period (minutes)
Azimuth
Elevation
Range (km)
Doppler Factor

Next 0 passes for location: London (51.5072 / 0.1276)

Sorry there are no passes over London.